| time (UTC) | temp F | wind direction | speed knots | gust knots | rain 1hr in | rain 24hr in | rain mn in | humidity % | barometer mb |
| 20260903233103 | 69 | 332 | 1.7 | 5.2 | 0.00 | 0.00 | 0.00 | 78 | 1020.8 |
| 20260903231535 | 70 | 284 | 0.0 | 3.5 | 0.00 | 0.00 | 0.00 | 76 | 1020.9 |
| 20260903230107 | 71 | 282 | 1.7 | 2.6 | 0.00 | 0.00 | 0.00 | 76 | 1020.8 |
| 20260903224539 | 71 | 277 | 0.9 | 3.5 | 0.00 | 0.00 | 0.00 | 76 | 1020.7 |
| 20260903223057 | 70 | 283 | 0.0 | 3.5 | 0.00 | 0.00 | 0.00 | 78 | 1020.7 |
| 20260903221543 | 70 | 306 | 0.0 | 3.5 | 0.00 | 0.00 | 0.00 | 80 | 1020.7 |
| 20260903220026 | 69 | 273 | 0.0 | 3.5 | 0.00 | 0.00 | 0.00 | 80 | 1020.6 |
| 20260903214608 | 69 | 319 | 0.0 | 1.7 | 0.00 | 0.00 | 0.00 | 80 | 1020.7 |
| 20260903213054 | 69 | 281 | 0.0 | 1.7 | 0.00 | 0.00 | 0.00 | 81 | 1020.6 |
| 20260903211530 | 70 | 308 | 0.0 | 1.7 | 0.00 | 0.00 | 0.00 | 80 | 1020.5 |
| 20260903210104 | 69 | 50 | 0.9 | 2.6 | 0.00 | 0.00 | 0.00 | 81 | 1020.7 |
| 20260903204601 | 68 | 42 | 0.0 | 1.7 | 0.00 | 0.00 | 0.00 | 81 | 1020.5 |
| 20260903203017 | 69 | 331 | 0.0 | 1.7 | 0.00 | 0.00 | 0.00 | 81 | 1020.4 |
| 20260903201544 | 69 | 332 | 0.9 | 2.6 | 0.00 | 0.00 | 0.00 | 81 | 1020.4 |
| 20260903200015 | 69 | 265 | 0.0 | 1.7 | 0.00 | 0.00 | 0.00 | 80 | 1020.3 |
| 20260903194525 | 70 | 287 | 0.9 | 1.7 | 0.00 | 0.00 | 0.00 | 79 | 1020.3 |
| 20260903193008 | 71 | 309 | 0.0 | 1.7 | 0.00 | 0.00 | 0.00 | 78 | 1020.1 |
| 20260903191516 | 71 | 279 | 0.0 | 0.9 | 0.00 | 0.00 | 0.00 | 77 | 1019.9 |
| 20260903190002 | 72 | 324 | 0.0 | 1.7 | 0.00 | 0.00 | 0.00 | 76 | 1019.8 |
| 20260903184519 | 73 | 306 | 0.0 | 0.9 | 0.00 | 0.00 | 0.00 | 75 | 1019.6 |
| 20260903183006 | 74 | 307 | 0.0 | 1.7 | 0.00 | 0.00 | 0.00 | 74 | 1019.5 |
| 20260903181527 | 75 | 320 | 0.9 | 1.7 | 0.00 | 0.00 | 0.00 | 73 | 1019.3 |
| 20260903180041 | 77 | 241 | 0.0 | 0.0 | 0.00 | 0.00 | 0.00 | 71 | 1019.1 |
| 20260903174545 | 80 | 150 | 0.0 | 0.0 | 0.00 | 0.00 | 0.00 | 68 | 1019.0 |
| 20260903173035 | 82 | 126 | 0.0 | 0.9 | 0.00 | 0.00 | 0.00 | 64 | 1018.8 |
| 20260903171548 | 83 | 126 | 0.0 | 0.0 | 0.00 | 0.00 | 0.00 | 62 | 1018.8 |
| 20260903170024 | 84 | 126 | 0.0 | 0.0 | 0.00 | 0.00 | 0.00 | 56 | 1018.9 |
| 20260903164517 | 85 | 124 | 0.9 | 1.7 | 0.00 | 0.00 | 0.00 | 51 | 1018.8 |
| 20260903163025 | 87 | 116 | 0.9 | 2.6 | 0.00 | 0.00 | 0.00 | 48 | 1018.8 |
| 20260903161556 | 87 | 123 | 0.0 | 1.7 | 0.00 | 0.00 | 0.00 | 45 | 1018.8 |
| 20260903160101 | 87 | 197 | 0.0 | 1.7 | 0.00 | 0.00 | 0.00 | 45 | 1018.8 |
| 20260903154518 | 88 | 192 | 0.0 | 2.6 | 0.00 | 0.00 | 0.00 | 44 | 1019.0 |
| 20260903153041 | 87 | 132 | 0.0 | 3.5 | 0.00 | 0.00 | 0.00 | 46 | 1018.9 |
| 20260903151505 | 88 | 111 | 0.9 | 2.6 | 0.00 | 0.00 | 0.00 | 43 | 1019.0 |
| 20260903144542 | 88 | 132 | 0.9 | 3.5 | 0.00 | 0.00 | 0.00 | 40 | 1019.3 |
| 20260903143001 | 87 | 151 | 0.0 | 2.6 | 0.00 | 0.00 | 0.00 | 41 | 1019.3 |
| 20260903141556 | 88 | 183 | 0.9 | 3.5 | 0.00 | 0.00 | 0.00 | 41 | 1019.3 |
| 20260903140045 | 87 | 138 | 1.7 | 5.2 | 0.00 | 0.00 | 0.00 | 43 | 1019.6 |
| 20260903134550 | 87 | 252 | 0.0 | 2.6 | 0.00 | 0.00 | 0.00 | 43 | 1019.7 |
| 20260903133104 | 86 | 234 | 1.7 | 4.3 | 0.00 | 0.00 | 0.00 | 44 | 1019.8 |
| 20260903131531 | 86 | 122 | 0.0 | 1.7 | 0.00 | 0.00 | 0.00 | 43 | 1019.8 |
| 20260903130039 | 87 | 219 | 0.0 | 4.3 | 0.00 | 0.00 | 0.00 | 42 | 1019.9 |
| 20260903124534 | 86 | 227 | 1.7 | 6.1 | 0.00 | 0.00 | 0.00 | 42 | 1020.2 |
| 20260903123100 | 86 | 250 | 2.6 | 7.0 | 0.00 | 0.00 | 0.00 | 42 | 1020.4 |
| 20260903121511 | 86 | 237 | 0.9 | 5.2 | 0.00 | 0.00 | 0.00 | 42 | 1020.4 |
| 20260903120010 | 85 | 219 | 0.9 | 3.5 | 0.00 | 0.00 | 0.00 | 41 | 1020.5 |
| 20260903114504 | 86 | 306 | 0.9 | 3.5 | 0.00 | 0.00 | 0.00 | 40 | 1020.7 |
| 20260903113041 | 84 | 197 | 0.9 | 3.5 | 0.00 | 0.00 | 0.00 | 43 | 1021.0 |
| 20260903111508 | 83 | 234 | 1.7 | 6.1 | 0.00 | 0.00 | 0.00 | 42 | 1021.1 |
| 20260903110055 | 84 | 209 | 0.9 | 3.5 | 0.00 | 0.00 | 0.00 | 44 | 1021.0 |
| 20260903104611 | 82 | 256 | 0.9 | 5.2 | 0.00 | 0.00 | 0.00 | 45 | 1021.1 |
| 20260903103021 | 83 | 224 | 0.0 | 4.3 | 0.00 | 0.00 | 0.00 | 50 | 1021.4 |
| 20260903101604 | 81 | 213 | 0.9 | 2.6 | 0.00 | 0.00 | 0.00 | 48 | 1021.6 |
| 20260903100021 | 80 | 221 | 0.9 | 3.5 | 0.00 | 0.00 | 0.00 | 50 | 1021.8 |
| 20260903094535 | 80 | 268 | 0.9 | 6.1 | 0.00 | 0.00 | 0.00 | 50 | 1021.8 |
| 20260903093008 | 80 | 289 | 1.7 | 5.2 | 0.00 | 0.00 | 0.00 | 52 | 1021.6 |
| 20260903091508 | 78 | 213 | 0.9 | 4.3 | 0.00 | 0.00 | 0.00 | 52 | 1021.6 |
| 20260903090047 | 78 | 265 | 1.7 | 5.2 | 0.00 | 0.00 | 0.00 | 52 | 1021.6 |
| 20260903084601 | 78 | 298 | 2.6 | 5.2 | 0.00 | 0.00 | 0.00 | 54 | 1021.7 |
| 20260903083105 | 78 | 261 | 1.7 | 2.6 | 0.00 | 0.00 | 0.00 | 52 | 1021.6 |
| 20260903081520 | 77 | 343 | 0.0 | 2.6 | 0.00 | 0.00 | 0.00 | 56 | 1021.4 |
| 20260903080013 | 76 | 325 | 0.0 | 3.5 | 0.00 | 0.00 | 0.00 | 54 | 1021.5 |
| 20260903074508 | 75 | 280 | 0.0 | 2.6 | 0.00 | 0.00 | 0.00 | 58 | 1021.5 |
| 20260903073018 | 74 | 8 | 0.9 | 3.5 | 0.00 | 0.00 | 0.00 | 60 | 1021.4 |
| 20260903071520 | 73 | 285 | 0.0 | 2.6 | 0.00 | 0.00 | 0.00 | 64 | 1021.4 |
| 20260903070014 | 72 | 270 | 0.9 | 2.6 | 0.00 | 0.00 | 0.00 | 65 | 1021.4 |
| 20260903064505 | 71 | 328 | 0.0 | 4.3 | 0.00 | 0.00 | 0.00 | 70 | 1021.5 |
| 20260903063101 | 71 | 344 | 0.0 | 1.7 | 0.00 | 0.00 | 0.00 | 69 | 1021.6 |
| 20260903061535 | 70 | 338 | 0.9 | 3.5 | 0.00 | 0.00 | 0.00 | 70 | 1021.5 |
| 20260903060045 | 68 | 8 | 0.0 | 3.5 | 0.00 | 0.00 | 0.00 | 73 | 1021.6 |
| 20260903054509 | 67 | 321 | 0.0 | 2.6 | 0.00 | 0.00 | 0.00 | 76 | 1021.3 |
| 20260903053038 | 66 | 279 | 0.0 | 1.7 | 0.00 | 0.00 | 0.00 | 76 | 1021.0 |
| 20260903051547 | 66 | 279 | 0.0 | 1.7 | 0.00 | 0.00 | 0.00 | 74 | 1020.9 |
| 20260903050014 | 68 | 276 | 0.0 | 2.6 | 0.00 | 0.00 | 0.00 | 71 | 1020.8 |
| 20260903044604 | 67 | 327 | 1.7 | 2.6 | 0.00 | 0.00 | 0.00 | 73 | 1020.7 |
| 20260903043057 | 65 | 324 | 0.9 | 2.6 | 0.00 | 0.00 | 0.00 | 77 | 1020.5 |
| 20260903041544 | 65 | 266 | 0.0 | 2.6 | 0.00 | 0.00 | 0.00 | 78 | 1020.5 |
| 20260903040013 | 66 | 256 | 0.0 | 2.6 | 0.00 | 0.00 | 0.00 | 75 | 1020.3 |
| 20260903033032 | 67 | 298 | 0.0 | 2.6 | 0.00 | 0.00 | 0.00 | 76 | 1020.1 |
| 20260903031602 | 68 | 275 | 0.9 | 5.2 | 0.00 | 0.00 | 0.00 | 73 | 1020.1 |
| 20260903030004 | 67 | 314 | 0.0 | 3.5 | 0.00 | 0.00 | 0.00 | 77 | 1020.1 |
| 20260903024534 | 67 | 344 | 0.0 | 3.5 | 0.00 | 0.00 | 0.00 | 77 | 1020.1 |
| 20260903023005 | 69 | 273 | 1.7 | 3.5 | 0.00 | 0.00 | 0.00 | 74 | 1020.2 |
| 20260903021539 | 68 | 3 | 1.7 | 8.7 | 0.00 | 0.00 | 0.00 | 78 | 1020.3 |
| 20260903020018 | 65 | 283 | 1.7 | 5.2 | 0.00 | 0.00 | 0.00 | 81 | 1020.3 |
| 20260903014554 | 67 | 356 | 0.0 | 2.6 | 0.00 | 0.00 | 0.00 | 80 | 1020.3 |
| 20260903013037 | 68 | 13 | 0.0 | 1.7 | 0.00 | 0.00 | 0.00 | 78 | 1020.2 |
| 20260903011554 | 68 | 13 | 0.0 | 3.5 | 0.00 | 0.00 | 0.00 | 79 | 1020.2 |
| 20260903010034 | 68 | 320 | 0.0 | 1.7 | 0.00 | 0.00 | 0.00 | 81 | 1020.3 |
| 20260903004517 | 66 | 330 | 0.0 | 0.9 | 0.00 | 0.00 | 0.00 | 83 | 1020.1 |
| 20260903003045 | 67 | 281 | 1.7 | 5.2 | 0.00 | 0.00 | 0.00 | 82 | 1020.3 |
| 20260903001555 | 67 | 336 | 0.9 | 2.6 | 0.00 | 0.00 | 0.00 | 82 | 1020.3 |
| 20260903000015 | 68 | 13 | 0.0 | 2.6 | 0.00 | 0.00 | 0.00 | 82 | 1020.3 |
| 20260902234528 | 69 | 284 | 0.9 | 2.6 | 0.00 | 0.00 | 0.00 | 80 | 1020.1 |